KI7MOQ Weather Reports


time (UTC)temp
C
wind
direction
speed
KPH
gust
KPH
rain 1hr
cm
rain 24hr
cm
rain mn
cm
humidity
%
barometer
mb
20260505102102 12 90 0.0 0.0 0.00 0.00 0.00 90 1017.1
20260505101601 12 90 0.0 0.0 0.00 0.00 0.00 90 1017.1
20260505101057 12 90 0.0 0.0 0.00 0.00 0.00 90 1016.9
20260505100553 12 90 0.0 0.0 0.00 0.00 0.00 90 1016.9
20260505100050 12 90 0.0 0.0 0.00 0.00 0.00 90 1017.0
20260505095546 12 90 0.0 0.0 0.00 0.00 0.00 90 1016.9
20260505095043 12 90 0.0 0.0 0.00 0.00 0.00 90 1017.0
20260505094540 12 90 0.0 0.0 0.00 0.00 0.00 90 1016.9
20260505094036 12 91 0.0 0.0 0.00 0.00 0.00 90 1016.9
20260505093532 12 91 0.0 0.0 0.00 0.00 0.00 90 1016.9
20260505093030 12 91 0.0 0.0 0.00 0.00 0.00 90 1016.9
20260505092527 12 91 0.0 0.0 0.00 0.00 0.00 90 1016.9
20260505092026 12 91 0.0 0.0 0.00 0.00 0.00 90 1016.8
20260505091522 12 91 0.0 0.0 0.00 0.00 0.00 90 1016.8
20260505091020 12 91 0.0 0.0 0.00 0.00 0.00 90 1016.7
20260505090518 12 91 0.0 0.0 0.00 0.00 0.00 90 1016.5
20260505090015 12 91 0.0 0.0 0.00 0.00 0.00 90 1016.5
20260505085513 12 90 0.0 0.0 0.00 0.00 0.00 90 1016.6
20260505085011 12 91 0.0 0.0 0.00 0.00 0.00 89 1016.5
20260505084509 12 91 0.0 0.0 0.00 0.00 0.00 89 1016.5
20260505084007 12 91 0.0 0.0 0.00 0.00 0.00 89 1016.3
20260505083504 12 91 0.0 0.0 0.00 0.00 0.00 89 1016.5
20260505083000 12 90 0.0 0.0 0.00 0.00 0.00 88 1016.3
20260505082455 12 93 0.0 0.0 0.00 0.00 0.00 88 1016.3
20260505081953 12 96 0.0 1.6 0.00 0.00 0.00 89 1016.4
20260505081450 12 96 0.0 0.0 0.00 0.00 0.00 89 1016.3
20260505080946 12 94 0.0 0.0 0.00 0.00 0.00 89 1016.4
20260505080442 12 94 0.0 0.0 0.00 0.00 0.00 89 1016.2
20260505075938 12 96 0.0 0.0 0.00 0.00 0.00 89 1016.2
20260505075435 12 98 0.0 0.0 0.00 0.00 0.00 89 1016.3
20260505074933 12 95 0.0 0.0 0.00 0.00 0.00 89 1016.4
20260505074430 12 96 0.0 0.0 0.00 0.00 0.00 89 1016.3
20260505073926 12 96 0.0 0.0 0.00 0.00 0.00 89 1016.1
20260505073424 12 96 0.0 0.0 0.00 0.00 0.00 88 1016.1
20260505072921 12 96 0.0 0.0 0.00 0.00 0.00 88 1016.1
20260505072417 12 96 0.0 0.0 0.00 0.00 0.00 88 1015.9
20260505071914 12 96 0.0 0.0 0.00 0.00 0.00 88 1015.9
20260505071410 12 96 0.0 0.0 0.00 0.00 0.00 87 1015.9
20260505070908 12 93 0.0 0.0 0.00 0.00 0.00 87 1015.7
20260505070404 13 96 1.6 1.6 0.00 0.00 0.00 86 1015.6
20260505065900 13 96 1.6 1.6 0.00 0.00 0.00 85 1015.7
20260505065357 13 98 0.0 0.0 0.00 0.00 0.00 85 1015.5
20260505064854 13 90 0.0 1.6 0.00 0.00 0.00 84 1015.5
20260505064351 13 94 0.0 0.0 0.00 0.00 0.00 84 1015.6
20260505063849 13 94 0.0 1.6 0.00 0.00 0.00 83 1015.2
20260505063339 13 90 0.0 0.0 0.00 0.00 0.00 83 1015.4
20260505062836 13 97 0.0 0.0 0.00 0.00 0.00 82 1015.1
20260505062334 13 104 0.0 0.0 0.00 0.00 0.00 82 1015.1
20260505061830 14 103 0.0 0.0 0.00 0.00 0.00 82 1015.0
20260505061328 14 103 0.0 0.0 0.00 0.00 0.00 81 1014.8
20260505060826 15 104 0.0 0.0 0.00 0.00 0.00 80 1014.9
20260505060322 15 104 0.0 0.0 0.00 0.00 0.00 79 1014.8
20260505055818 15 104 0.0 0.0 0.00 0.00 0.00 79 1014.7
20260505055314 15 105 0.0 0.0 0.00 0.00 0.00 79 1014.5
20260505054812 15 95 0.0 0.0 0.00 0.00 0.00 78 1014.6
20260505054309 15 95 0.0 0.0 0.00 0.00 0.00 78 1014.9
20260505053807 15 95 0.0 1.6 0.00 0.00 0.00 78 1014.8
20260505053304 15 97 0.0 0.0 0.00 0.00 0.00 77 1014.6
20260505052801 15 97 0.0 0.0 0.00 0.00 0.00 77 1014.8
20260505052258 15 96 0.0 0.0 0.00 0.00 0.00 76 1014.6
20260505051754 16 96 1.6 1.6 0.00 0.00 0.00 75 1014.6
20260505051253 16 98 1.6 1.6 0.00 0.00 0.00 75 1014.5
20260505050750 16 96 1.6 1.6 0.00 0.00 0.00 74 1014.6
20260505050249 16 96 0.0 1.6 0.00 0.00 0.00 74 1014.5
20260505041718 18 93 1.6 1.6 0.00 0.00 0.00 68 1013.8
20260505041215 18 96 1.6 1.6 0.00 0.00 0.00 68 1013.7
20260505040713 18 96 1.6 1.6 0.00 0.00 0.00 67 1013.7
20260505040210 18 88 1.6 1.6 0.00 0.00 0.00 67 1013.5
20260505035707 18 73 3.2 4.8 0.00 0.00 0.00 66 1013.5
20260505035203 18 87 1.6 1.6 0.00 0.00 0.00 66 1013.4
20260505034659 19 87 1.6 1.6 0.00 0.00 0.00 66 1013.4
20260505034156 19 98 1.6 1.6 0.00 0.00 0.00 65 1013.3
20260505033653 20 95 0.0 1.6 0.00 0.00 0.00 65 1013.0
20260505033151 20 95 1.6 1.6 0.00 0.00 0.00 64 1013.0
20260505032649 20 95 0.0 1.6 0.00 0.00 0.00 63 1013.1
20260505032144 20 93 1.6 1.6 0.00 0.00 0.00 64 1012.8
20260505031642 21 93 1.6 1.6 0.00 0.00 0.00 64 1012.7
20260505031138 21 98 1.6 1.6 0.00 0.00 0.00 68 1012.8
20260505030635 21 112 0.0 0.0 0.00 0.00 0.00 66 1012.5
20260505030131 21 120 0.0 1.6 0.00 0.00 0.00 66 1012.5
20260505025627 21 121 1.6 1.6 0.00 0.00 0.00 65 1012.6
20260505025126 21 128 3.2 3.2 0.00 0.00 0.00 65 1012.3
20260505024623 21 117 0.0 1.6 0.00 0.00 0.00 65 1012.3
20260505024120 22 115 0.0 0.0 0.00 0.00 0.00 64 1012.4
20260505023617 22 119 1.6 1.6 0.00 0.00 0.00 64 1012.2
20260505023115 22 120 1.6 1.6 0.00 0.00 0.00 63 1012.2
20260505022612 22 202 3.2 4.8 0.00 0.00 0.00 63 1012.2
20260505022109 22 122 1.6 1.6 0.00 0.00 0.00 63 1012.4
20260505021605 22 115 0.0 1.6 0.00 0.00 0.00 62 1012.2
20260505021102 22 122 1.6 1.6 0.00 0.00 0.00 62 1012.2
20260505020603 22 130 1.6 3.2 0.00 0.00 0.00 62 1012.4
20260505020059 22 130 1.6 3.2 0.00 0.00 0.00 61 1012.3
20260505015556 22 131 1.6 1.6 0.00 0.00 0.00 61 1012.0
20260505015053 22 163 3.2 3.2 0.00 0.00 0.00 60 1012.3
20260505014550 22 133 3.2 3.2 0.00 0.00 0.00 60 1012.3
20260505014047 22 134 3.2 3.2 0.00 0.00 0.00 60 1012.3
20260505013544 22 133 3.2 3.2 0.00 0.00 0.00 60 1012.3
20260505013042 23 127 1.6 3.2 0.00 0.00 0.00 59 1012.4
20260505012539 22 126 1.6 3.2 0.00 0.00 0.00 59 1012.4
20260505012036 23 114 0.0 0.0 0.00 0.00 0.00 58 1012.5
20260505011531 23 122 3.2 3.2 0.00 0.00 0.00 58 1012.4
20260505011029 23 130 1.6 3.2 0.00 0.00 0.00 57 1012.4
20260505010524 23 113 0.0 1.6 0.00 0.00 0.00 57 1012.4
20260505010021 23 115 0.0 1.6 0.00 0.00 0.00 57 1012.6
20260505005517 23 67 0.0 1.6 0.00 0.00 0.00 57 1012.5
20260505005015 22 107 0.0 0.0 0.00 0.00 0.00 57 1012.4
20260505004512 23 127 1.6 3.2 0.00 0.00 0.00 56 1012.6
20260505004009 23 125 1.6 1.6 0.00 0.00 0.00 56 1012.6
20260505003506 23 122 1.6 1.6 0.00 0.00 0.00 56 1012.8
20260505003003 23 91 1.6 1.6 0.00 0.00 0.00 55 1012.7
20260505002458 23 109 0.0 0.0 0.00 0.00 0.00 56 1012.8
20260505001957 23 116 1.6 1.6 0.00 0.00 0.00 56 1012.8
20260505001454 22 107 0.0 0.0 0.00 0.00 0.00 56 1012.8
20260505000950 22 101 1.6 3.2 0.00 0.00 0.00 56 1012.9
20260505000449 22 121 1.6 1.6 0.00 0.00 0.00 56 1012.9
20260504235945 23 103 0.0 0.0 0.00 0.00 0.00 55 1013.0
20260504235443 23 118 0.0 0.0 0.00 0.00 0.00 56 1012.9
20260504234939 22 131 3.2 3.2 0.00 0.00 0.00 56 1013.0
20260504234436 22 105 1.6 1.6 0.00 0.00 0.00 56 1013.0
20260504233933 22 122 3.2 3.2 0.00 0.00 0.00 56 1012.9
20260504233428 22 217 6.4 6.4 0.00 0.00 0.00 55 1013.0
20260504232925 22 127 1.6 1.6 0.00 0.00 0.00 55 1012.9
20260504232423 22 114 1.6 1.6 0.00 0.00 0.00 56 1013.0
20260504231920 22 123 1.6 1.6 0.00 0.00 0.00 56 1013.1
20260504231416 22 133 3.2 3.2 0.00 0.00 0.00 56 1013.2
20260504230912 22 125 3.2 3.2 0.00 0.00 0.00 57 1013.2
20260504230410 22 112 1.6 1.6 0.00 0.00 0.00 56 1013.3
20260504225908 21 104 0.0 0.0 0.00 0.00 0.00 59 1013.2
20260504225405 21 70 1.6 3.2 0.00 0.00 0.00 58 1013.3
20260504224902 22 127 3.2 3.2 0.00 0.00 0.00 57 1013.5
20260504224358 21 111 0.0 0.0 0.00 0.00 0.00 58 1013.5
20260504223856 21 117 0.0 1.6 0.00 0.00 0.00 59 1013.3
20260504223356 21 202 3.2 3.2 0.00 0.00 0.00 60 1013.5
20260504222852 21 118 1.6 1.6 0.00 0.00 0.00 59 1013.8
20260504222349 21 100 0.0 0.0 0.00 0.00 0.00 59 1013.9
20260504221848 21 148 3.2 3.2 0.00 0.00 0.00 58 1013.8
20260504221344 20 101 0.0 0.0 0.00 0.00 0.00 61 1014.0
20260504220842 21 182 3.2 3.2 0.00 0.00 0.00 60 1013.9
20260504220338 20 128 3.2 3.2 0.00 0.00 0.00 61 1014.0
20260504215835 20 112 0.0 1.6 0.00 0.00 0.00 60 1013.9
20260504215331 20 174 3.2 3.2 0.00 0.00 0.00 60 1014.2
20260504214828 20 89 1.6 3.2 0.00 0.00 0.00 61 1014.1
20260504214325 20 111 0.0 0.0 0.00 0.00 0.00 62 1014.1
20260504213821 20 136 1.6 1.6 0.00 0.00 0.00 61 1014.4
20260504213317 20 130 0.0 0.0 0.00 0.00 0.00 62 1014.3
20260504212815 20 108 1.6 1.6 0.00 0.00 0.00 61 1014.5
20260504212311 20 115 0.0 0.0 0.00 0.00 0.00 63 1014.5
20260504211809 20 126 3.2 3.2 0.00 0.00 0.00 62 1014.5
20260504211304 20 131 3.2 3.2 0.00 0.00 0.00 62 1014.5
20260504210802 19 94 0.0 0.0 0.00 0.00 0.00 64 1014.6
20260504210259 19 141 3.2 3.2 0.00 0.00 0.00 64 1014.8
20260504205756 18 106 0.0 1.6 0.00 0.00 0.00 64 1014.7
20260504205254 19 180 3.2 3.2 0.00 0.00 0.00 65 1014.8
20260504204752 19 136 0.0 1.6 0.00 0.00 0.00 64 1014.9
20260504204250 18 116 1.6 1.6 0.00 0.00 0.00 65 1015.0
20260504203749 19 137 3.2 3.2 0.00 0.00 0.00 65 1015.1
20260504203247 18 125 1.6 3.2 0.00 0.00 0.00 65 1015.4
20260504202747 18 157 3.2 4.8 0.00 0.00 0.00 67 1015.4
20260504202244 18 205 4.8 4.8 0.00 0.00 0.00 68 1015.2
20260504201741 17 124 1.6 3.2 0.00 0.00 0.00 68 1015.2
20260504201238 18 142 3.2 3.2 0.00 0.00 0.00 67 1015.2
20260504200736 18 118 4.8 6.4 0.00 0.00 0.00 68 1015.5
20260504200232 17 119 3.2 3.2 0.00 0.00 0.00 69 1015.5
20260504195728 17 121 1.6 1.6 0.00 0.00 0.00 70 1015.5
20260504195224 17 120 1.6 1.6 0.00 0.00 0.00 70 1015.6
20260504194722 17 121 1.6 3.2 0.00 0.00 0.00 70 1015.6
20260504194218 17 116 1.6 3.2 0.00 0.00 0.00 70 1015.7
20260504193714 17 108 0.0 1.6 0.00 0.00 0.00 69 1015.7
20260504193212 16 107 0.0 0.0 0.00 0.00 0.00 72 1015.5
20260504192710 16 104 0.0 1.6 0.00 0.00 0.00 72 1015.7
20260504192208 17 115 3.2 4.8 0.00 0.00 0.00 71 1015.7
20260504191706 16 135 1.6 3.2 0.00 0.00 0.00 72 1015.9
20260504191202 17 62 1.6 1.6 0.00 0.00 0.00 70 1015.8
20260504190658 17 110 4.8 4.8 0.00 0.00 0.00 71 1016.0
20260504190154 16 111 0.0 0.0 0.00 0.00 0.00 74 1016.0
20260504185651 16 181 3.2 3.2 0.00 0.00 0.00 74 1016.0
20260504185148 16 116 1.6 1.6 0.00 0.00 0.00 74 1016.1
20260504184644 16 125 4.8 4.8 0.00 0.00 0.00 74 1016.2
20260504184139 16 131 3.2 4.8 0.00 0.00 0.00 76 1016.2
20260504183636 15 127 1.6 1.6 0.00 0.00 0.00 77 1016.2
20260504183133 15 119 1.6 1.6 0.00 0.00 0.00 78 1016.3
20260504182631 15 127 4.8 4.8 0.00 0.00 0.00 78 1016.2
20260504182129 14 123 4.8 4.8 0.00 0.00 0.00 80 1016.0
20260504181626 15 170 3.2 3.2 0.00 0.00 0.00 79 1016.1
20260504181123 15 166 3.2 3.2 0.00 0.00 0.00 79 1016.3
20260504180622 14 150 1.6 3.2 0.00 0.00 0.00 80 1016.2
20260504180121 15 127 1.6 1.6 0.00 0.00 0.00 80 1016.1
20260504175618 14 198 3.2 3.2 0.00 0.00 0.00 80 1016.1
20260504175114 15 118 3.2 3.2 0.00 0.00 0.00 80 1016.2
20260504174612 15 117 1.6 1.6 0.00 0.00 0.00 79 1016.2
20260504174109 14 174 1.6 3.2 0.00 0.00 0.00 80 1016.2
20260504173605 14 106 3.2 4.8 0.00 0.00 0.00 80 1016.1
20260504173103 14 115 0.0 0.0 0.00 0.00 0.00 81 1016.0
20260504172559 14 148 3.2 3.2 0.00 0.00 0.00 81 1016.3
20260504172056 14 117 3.2 3.2 0.00 0.00 0.00 80 1016.1
20260504171552 14 111 3.2 3.2 0.00 0.00 0.00 79 1015.9
20260504171050 14 105 1.6 3.2 0.00 0.00 0.00 80 1015.9
20260504170545 14 134 6.4 6.4 0.00 0.00 0.00 80 1016.1
20260504150929 14 115 1.6 1.6 0.00 0.00 0.00 79 1015.5
20260504150426 14 111 1.6 1.6 0.00 0.00 0.00 80 1015.2
20260504140853 13 117 1.6 3.2 0.00 0.00 0.00 83 1014.7
20260504140349 13 117 1.6 1.6 0.00 0.00 0.00 83 1014.7
20260504130817 13 118 1.6 3.2 0.00 0.00 0.00 80 1013.9
20260504130314 13 111 0.0 1.6 0.00 0.00 0.00 80 1013.6
20260504120237 15 114 1.6 1.6 0.00 0.00 0.00 77 1012.6
20260504110704 15 114 0.0 1.6 0.00 0.00 0.00 74 1012.0
20260504110201 15 108 0.0 0.0 0.00 0.00 0.00 76 1011.8